Other Public Products
Issued by NWS Grand Forks, ND

Home | Current Version | Previous Version | Graphics & Text | Print | Product List | Glossary On
Versions: 1 2 3 4 5 6 7 8 9 10 11 12 13 14 15 16 17 18 19 20 21 22 23 24 25 26 27 28 29 30 31 32 33 34 35 36 37 38 39 40 41 42 43 44 45 46 47 48 49 50
000
FPUS83 KFGF 292131
OPUFGF
PRAIRIE TO PINES WEATHER ROUNDUP
NATIONAL WEATHER SERVICE EASTERN NORTH DAKOTA/GRAND FORKS ND
400 PM CDT FRI MAY 29 2015

 **SATELLITE DATA USED TO AUGMENT SKY COVER AT AUTOMATED STATIONS**
 *****  WEATHER ACROSS EASTERN NORTH DAKOTA  *****

CITY           SKY/WX    TMP DP  RH WIND       PRES   REMARKS
GRAND FORKS    MOSUNNY   55  38  52 N26G32    30.18S
GRAND FORKS AF MOSUNNY   55  37  50 N23G35    30.19S
GRAND CITY NWS   N/A     54 N/A N/A VRB12       N/A
BUXTON           N/A     54  39  58 N13G30      N/A
DEVILS LAKE    SUNNY     54  32  43 N17G25    30.22S
FARGO          PTSUNNY   55  42  61 N22G30    30.14F
WAHPETON ARPT  CLOUDY    48  39  71 N20G35    30.13R
$$

 *****  WEATHER ACROSS CENTRAL AND WESTERN NORTH DAKOTA  *****

CITY           SKY/WX    TMP DP  RH WIND       PRES   REMARKS
JAMESTOWN      MOSUNNY   57  40  52 N24       30.18S
BISMARCK       PTSUNNY   55  35  47 N14G23    30.26S
MINOT          MOSUNNY   54  33  45 NW12G22   30.27F
MINOT AFB      SUNNY     57  35  43 N9        30.26F
GARRISON         N/A     53  34  48 N8G22     30.27F
WILLISTON      SUNNY     58  32  37 NE13      30.29F
DICKINSON        N/A    N/A N/A N/A MISG      30.26F
HETTINGER      PTSUNNY   53  36  52 N12G18    30.28F
$$

 *****  OTHER OBSERVATIONS NORTHEAST NORTH DAKOTA  *****

CITY           SKY/WX    TMP DP  RH WIND       PRES   REMARKS
WALHALLA         N/A     52  32  46 MISG      30.25R
LANGDON        FAIR      54  34  47 N21G28    30.23S
CAVALIER       FAIR      52  36  54 N17G28    30.23R
GRAFTON        FAIR      54  37  54 N20G25    30.21S
CANDO          FAIR      55  32  41 N16G26    30.25R
FORT TOTTEN      N/A     58  38  47 N7        29.95S
ROLLA          FAIR      52  32  46 N17G25    30.25S
RUGBY          NOT AVBL
 ***** THE ABOVE OBSERVATIONS ARE NON NWS ARE NOT QUALITY
        CONTROLLED AND MAY MIS-REPORT RAIN FOR SNOW...
$$

 *****  OTHER OBSERVATIONS SOUTHEAST NORTH DAKOTA *****

CITY           SKY/WX    TMP DP  RH WIND       PRES   REMARKS
COOPERSTOWN    NOT AVBL
VALLEY CITY    FAIR      55  39  54 N18G31    30.17S
OAKES            N/A     54  45  71 N23G30    30.15F
GWINNER        NOT AVBL
SHEYENNE NWR     N/A     53  41  63 N15       29.95S
BUFFALO        NOT AVBL
WYNDMERE         N/A     50  43  76 VRB17       N/A
 ***** THE ABOVE OBSERVATIONS ARE NON NWS ARE NOT QUALITY
       CONTROLLED AND MAY MIS-REPORT RAIN FOR SNOW...
$$

  *****  WEATHER ACROSS NORTHERN MINNESOTA  *****

CITY           SKY/WX    TMP DP  RH WIND       PRES   REMARKS
FLAG ISLAND    MOSUNNY   52  36  54 N24G31    30.12S
WARROAD        SUNNY     54  39  58 NW17G26   30.14S
ROSEAU         SUNNY     54  39  58 N18G28    30.15R
HALLOCK        SUNNY     54  34  47 N21G31    30.19S
THF RVR FALLS  MOSUNNY   54  37  54 N17G26    30.15S
HALSTAD          N/A     56  36  46 N24         N/A
FOSSTON        PTSUNNY   54  45  71 N22G28    30.12F
BAUDETTE       MOSUNNY   53  40  61 N22G29    30.11R
WASKISH        PTSUNNY   55  43  62 N13G18    30.09S
CROOKSTON      MOSUNNY   55  39  54 N21G30    30.16S
$$
  *****  WEATHER ACROSS CENTRAL AND WEST MINNESOTA  *****

CITY           SKY/WX    TMP DP  RH WIND       PRES   REMARKS
BEMIDJI        PTSUNNY   53  41  63 N12G22    30.09S
PARK RAPIDS    CLOUDY    52  41  66 N20G25    30.06S
WADENA         CLOUDY    52  45  76 N17       30.05R
DETROIT LAKES  PTSUNNY   50  41  71 N20G32    30.11S
MOORHEAD       PTSUNNY   52  43  71 N23G29    30.15S
FERGUS FALLS   CLOUDY    52  43  71 N18G24    30.10R
ELBOW LAKE     CLOUDY    51  45  80 N17G25    30.07R
MORRIS MN      CLOUDY    52  46  82 N17G32    30.05R
STAPLES        CLOUDY    52  45  76 N14       30.05R
WHEATON        CLOUDY    46  41  81 N23G30    30.13S
$$
  *****  WEATHER ELSEWHERE ACROSS MINNESOTA  *****

CITY           SKY/WX    TMP DP  RH WIND       PRES   REMARKS
DULUTH         CLOUDY    57  52  83 N14       29.95R
INTRNTL FALLS  CLOUDY    52  42  69 NW12      30.06S
ELY            NOT AVBL
CLOQUET        CLOUDY    55  50  82 NW13G21   29.98R
BRAINERD       CLOUDY    52  46  80 N15G23    30.03R
HIBBING        CLOUDY    52  48  86 N14       30.01R
ALEXANDRIA     CLOUDY    52  47  83 N17       30.05R
SAINT CLOUD    LGT RAIN  57  55  93 N18G24    29.97R
MINNEAPOLIS    LGT RAIN  65  64  97 N9        29.91R
$$

  *****  WEATHER ACROSS SOUTH DAKOTA  *****

CITY           SKY/WX    TMP DP  RH WIND       PRES   REMARKS
SIOUX FALLS    LGT RAIN  55  51  86 N18G29    30.00R
BROOKINGS      CLOUDY    48  45  87 N15G30    30.06R
WATERTOWN      CLOUDY    49  44  83 N22G28    30.07S
HURON          CLOUDY    52  45  77 N25G33    30.11R
SISSETON         N/A     49  43  80 N24G35    30.12R
ABERDEEN       CLOUDY    53  43  68 N18G28    30.17S
MITCHELL       CLOUDY    53  49  86 N25       30.09R
PIERRE         CLOUDY    52  44  74 N18G24    30.20R
MOBRIDGE       CLOUDY    56  39  53 N20G26    30.20S
RAPID CITY     PTSUNNY   56  42  59 N23G30    30.26S
$$

  *****  SOME WEATHER IN NEARBY STATES *****

CITY           SKY/WX    TMP DP  RH WIND       PRES   REMARKS
GLASGOW MT     SUNNY     56  33  42 S6        30.29F
GREAT FALLS MT SUNNY     65  50  58 E10G17    30.15F
CHEYENNE WY    PTSUNNY   55  42  61 N24G33    30.25S
SCOTTSBLUFF NE LGT RAIN  50  47  89 N14       30.25S FOG
OMAHA NE       CLOUDY    78  60  53 S12       29.90F
DES MOINES IA  CLOUDY    73  64  73 S13       29.89F
DAVENPORT IA   PTSUNNY   81  65  58 SW18      29.91F
CHICAGO IL     PTSUNNY   78  64  61 S22G28    29.91F
EAU CLAIRE WI  RAIN      69  65  86 W8        29.88S
LA CROSSE WI   HVY RAIN  72  66  81 SW15      29.87S
$$

  *****  SOME NATIONAL WEATHER *****

CITY           SKY/WX    TMP DP  RH WIND       PRES   REMARKS
LA GUARDIA NY  PTSUNNY   80  54  40 SE7       30.22F
RALEIGH NC     MOSUNNY   86  61  42 E10       30.18F
ATLANTA GA     PTSUNNY   84  63  49 SE10G16   30.16F
NEW ORLEANS LA PTSUNNY   82  69  64 S10       30.04F
OKLAHOMA CITY  CLOUDY    78  61  55 N8        29.94S
ALBUQUERQUE NM PTSUNNY   77  32  19 NW35G45   30.14
SALT LAKE CITY MOSUNNY   74  41  30 N9        30.15F
LOS ANGELES CA PTSUNNY   67  58  72 W13       29.95F
BOISE ID       MOSUNNY   83  37  19 S9        30.03F
SEATTLE WA     MOSUNNY   75  55  49 VRB7      29.96F
$$

*** WEATHER ACROSS MANITOBA...SASKATCHEWAN AND ONTARIO ***
                ***ONTARIO***

CITY           SKY/WX    TMP DP  RH WIND       PRES   REMARKS
GERALDTON      LGT RAIN  48  48 100 N13G21    29.88R
THUNDER BAY    LGT RAIN  59  55  88 NW8       29.89R
SIOUX LOOKOUT  CLOUDY    52  43  71 N12G22    30.02S
TORONTO        PTSUNNY   75  55  50 SE10      30.11F
BIG TROUT LK   LGT RAIN  37  37 100 NE5       30.06R
PICKLE LAKE    LGT RAIN  50  45  81 NW6       29.97R
DRYDEN         CLOUDY    50  41  71 NW13G20   30.05R
KENORA         PTSUNNY   48  36  61 NW16G24   30.13R
$$
                *** MANITOBA***

CITY           SKY/WX    TMP DP  RH WIND       PRES   REMARKS
BRANDON        MOSUNNY   54  30  40 N12G20    30.28F
DAUPHIN        CLOUDY    46  34  61 N22G28    30.35S
ISLAND LAKE    FLURRIES  34  28  80 N14G25    30.27R WCI  24
PILOT MOUND      N/A     50  34  53 N18G25      N/A
THE PAS        CLOUDY    43  23  45 N12       30.41S
THOMPSON       FLURRIES  34  21  60 N15       30.39S WCI  24
WINNIPEG       MOSUNNY   52  34  50 N20G31    30.25S
LYNN LAKE      CLOUDY    37  21  52 N8        30.41F
CHURCHILL      CLOUDY    30  19  64 N12       30.41F WCI  21
GILLAM         LGT SNOW  28  25  86 N15G22    30.35S VSB 5/8 WCI  17
$$
                ***SASKATCHEWAN***

CITY           SKY/WX    TMP DP  RH WIND       PRES   REMARKS
ESTEVAN        MOSUNNY   54  32  43 N9G20     30.30F
KINDERSLEY     PTSUNNY   57  27  30 E13       30.29
LLOYDMINSTER   PTSUNNY   57  23  26 SE7G18    30.31F
PRINCE ALBERT  PTSUNNY   52  25  35 N7G21     30.38F
REGINA         MOSUNNY   55  23  28 NE8       30.33F



USA.gov is the U.S. government's official web portal to all federal, state and local government web resources and services.